New Philadelphia, OH

1:25 AM EDT on April 25, 2017 (GMT -0400)
Clever

Weather History for KPHD - March, 2013

Change the Weather History Date:

Friday, March 1, 2013

  Actual Average Record
Temperature  
Mean Temperature 30 °F 35 °F  
Max Temperature 33 °F 45 °F 71 °F (1976)
Min Temperature 27 °F 24 °F 0 °F (1967)
Degree Days  
Heating Degree Days 35 30  
Month to date heating degree days 35 30  
Since 1 July heating degree days 4165 4237  
Cooling Degree Days 0 0  
Month to date cooling degree days 0 0  
Year to date cooling degree days 0 0  
Moisture  
Dew Point 22 °F    
Average Humidity 69    
Maximum Humidity 78    
Minimum Humidity 59    
Precipitation  
Precipitation T in 0.08 in 1.16 in (2017)
Month to date precipitation T 0.08  
Year to date precipitation 3.16 5.04  
Sea Level Pressure  
Sea Level Pressure 29.97 in    
Wind  
Wind Speed 9 mph (NNW)    
Max Wind Speed 15 mph    
Max Gust Speed 18 mph    
Visibility 9 miles    
Events Snow    
T = Trace of Precipitation, MM = Missing Value Source: NWS Daily Summary

Daily Weather History Graph

Daily Weather History Graph

Search for Another Location

Airport or City:

Trip Planner

Search our weather history database for the weather conditions in past years. The results will help you decide how hot, cold, wet, or windy it might be!

Date:

Astronomy

Mar. 01, 2013 Rise Set
Actual Time 6:59 AM EST 6:17 PM EST
Civil Twilight 6:31 AM EST 6:44 PM EST
Nautical Twilight 6:00 AM EST 7:16 PM EST
Astronomical Twilight 5:28 AM EST 7:48 PM EST
Moon 10:50 PM EST (3/1) 8:43 AM EST (3/1)
Length of Visible Light 12h 13m
Length of Day
11h 18m
Waning Gibbous, 83% of the Moon is Illuminated
Mar 1
Waning Gibbous
Mar 4
Last Quarter
Mar 11
New
Mar 19
First Quarter
Mar 27
Full

Hourly Weather History & Observations

Time (EST) Temp. Windchill Dew Point Humidity Pressure Visibility Wind Dir Wind Speed Gust Speed Precip Events Conditions
12:53 AM 32.0 °F 26.4 °F 27.0 °F 82% 29.91 in 10.0 mi NNW 5.8 mph - N/A   Overcast
1:53 AM 32.0 °F 23.6 °F 25.0 °F 75% 29.91 in 10.0 mi NW 10.4 mph - N/A   Overcast
2:53 AM 32.0 °F 25.6 °F 25.0 °F 75% 29.91 in 10.0 mi NW 6.9 mph - N/A   Overcast
3:53 AM 32.0 °F 26.4 °F 25.0 °F 75% 29.91 in 10.0 mi NW 5.8 mph - N/A   Overcast
4:21 AM 30.2 °F 21.9 °F 24.8 °F 80% 29.88 in 9.0 mi NNW 9.2 mph - N/A   Overcast
4:53 AM 30.9 °F 25.2 °F 25.0 °F 79% 29.91 in 10.0 mi NW 5.8 mph - N/A   Overcast
5:04 AM 30.2 °F 23.4 °F 24.8 °F 80% 29.89 in 10.0 mi NW 6.9 mph - N/A   Overcast
5:27 AM 30.2 °F 23.4 °F 24.8 °F 80% 29.89 in 10.0 mi NNW 6.9 mph - N/A   Overcast
5:53 AM 30.9 °F 22.8 °F 25.0 °F 79% 29.92 in 10.0 mi NNW 9.2 mph - N/A   Overcast
6:34 AM 30.2 °F 21.3 °F 24.8 °F 80% 29.90 in 9.0 mi NNW 10.4 mph - N/A   Overcast
7:53 AM 30.0 °F 21.7 °F 23.0 °F 75% 29.96 in 6.0 mi North 9.2 mph - 0.00 in Snow Light Snow
8:53 AM 30.0 °F 21.1 °F 21.0 °F 69% 29.98 in 10.0 mi NNW 10.4 mph - 0.00 in   Overcast
9:53 AM 30.0 °F 21.1 °F 21.0 °F 69% 29.98 in 10.0 mi NNW 10.4 mph - N/A   Overcast
10:20 AM 30.2 °F 23.4 °F 21.2 °F 69% 29.96 in 10.0 mi NW 6.9 mph - N/A   Overcast
10:53 AM 30.9 °F 21.7 °F 19.9 °F 64% 29.99 in 10.0 mi NNW 11.5 mph - N/A   Overcast
12:30 PM 30.2 °F 20.8 °F 21.2 °F 69% 29.97 in 8.0 mi NNW 11.5 mph 17.3 mph N/A   Overcast
1:02 PM 30.2 °F 21.3 °F 19.4 °F 64% 29.96 in 9.0 mi NW 10.4 mph - 0.00 in   Overcast
1:53 PM 30.0 °F 22.4 °F 21.0 °F 69% 29.99 in 6.0 mi NW 8.1 mph - 0.00 in Snow Light Snow
2:53 PM 30.9 °F 23.5 °F 23.0 °F 72% 29.98 in 9.0 mi NNW 8.1 mph - 0.00 in   Overcast
3:53 PM 30.0 °F 21.1 °F 21.9 °F 72% 29.99 in 9.0 mi NW 10.4 mph - 0.00 in   Overcast
4:07 PM 30.2 °F 21.9 °F 21.2 °F 69% 29.95 in 10.0 mi NNW 9.2 mph - N/A   Overcast
4:53 PM 30.0 °F 20.5 °F 21.0 °F 69% 30.00 in 10.0 mi NNW 11.5 mph - 0.00 in   Overcast
5:40 PM 28.4 °F 19.7 °F 21.2 °F 74% 29.97 in 6.0 mi NW 9.2 mph - N/A   Haze
5:53 PM 28.9 °F 21.9 °F 21.9 °F 75% 30.01 in 10.0 mi NW 6.9 mph - N/A   Overcast
6:53 PM 28.9 °F 21.9 °F 21.9 °F 75% 30.02 in 9.0 mi NW 6.9 mph - N/A   Overcast
7:17 PM 28.4 °F 20.4 °F 21.2 °F 74% 29.99 in 10.0 mi NW 8.1 mph - N/A   Overcast
7:53 PM 28.9 °F 21.1 °F 21.0 °F 72% 30.03 in 10.0 mi NNW 8.1 mph - N/A   Overcast
8:53 PM 28.9 °F 19.2 °F 21.0 °F 72% 30.04 in 10.0 mi NW 11.5 mph - N/A   Overcast
9:53 PM 28.0 °F 19.3 °F 18.0 °F 66% 30.04 in 10.0 mi North 9.2 mph 17.3 mph N/A   Overcast
10:46 PM 28.4 °F 19.1 °F 17.6 °F 64% 30.01 in 10.0 mi NNW 10.4 mph - N/A   Overcast
10:53 PM 28.0 °F 19.3 °F 18.0 °F 66% 30.04 in 10.0 mi NNW 9.2 mph - N/A   Overcast
11:53 PM 28.0 °F 19.3 °F 18.0 °F 66% 30.03 in 10.0 mi NNW 9.2 mph - N/A   Overcast